User: anonymous   Login
Location: ????????
(55.0808°N, 38.5463°E)
Time: 05:55:21
(UTC+00:00)
Language:

Cosmos 2266 Rocket - Orbit

View from above orbital plane
View from above orbital plane
View from above satellite
View from above satellite

Ground track
Ground track

The orbit data is extracted from the following two-line orbital elements,

1 22889U 93070B   24174.54856607  .00000088  00000-0  72543-4 0  9998
2 22889  82.9450 210.9908 0048459 245.2106 114.4006 13.78117086540263
Epoch (UTC): 22 June 2024 13:09:56
Eccentricity: 0.0048459
inclination: 82.9450°
perigee height: 935 km
apogee height: 1006 km
right ascension of ascending node: 210.9908°
argument of perigee: 245.2106°
revolutions per day: 13.78117086
mean anomaly at epoch: 114.4006°
orbit number at epoch: 54026

The dashed part of the orbit path shows where the satellite is in the earth's shadow,  

DLR